Time,TemperatureF,DewpointF,PressureIn,WindDirection,WindDirectionDegrees,WindSpeedMPH,WindSpeedGustMPH,Humidity,HourlyPrecipIn,Conditions,Clouds,dailyrainin,SolarRadiationWatts/m^2,SoftwareType,DateUTC
2013-01-19 00:01:00,35.0,25.5,30.34,SW,227,3.0,5.0,68,0.00,,,0.00,0,Wunderground v.1.15,2013-01-19 05:01:00,
2013-01-19 00:06:00,35.1,25.2,30.34,SW,217,3.0,6.0,67,0.00,,,0.00,0,Wunderground v.1.15,2013-01-19 05:06:00,
2013-01-19 00:11:00,35.0,25.1,30.34,SW,229,3.0,6.0,67,0.00,,,0.00,0,Wunderground v.1.15,2013-01-19 05:11:00,
2013-01-19 00:16:00,34.9,25.0,30.33,SW,216,2.0,6.0,67,0.00,,,0.00,0,Wunderground v.1.15,2013-01-19 05:16:00,
2013-01-19 00:21:00,34.6,25.1,30.33,SW,227,3.0,4.0,68,0.00,,,0.00,0,Wunderground v.1.15,2013-01-19 05:21:00,
2013-01-19 00:26:00,34.4,24.9,30.33,SW,228,3.0,4.0,68,0.00,,,0.00,0,Wunderground v.1.15,2013-01-19 05:26:00,
2013-01-19 00:31:00,34.2,24.7,30.33,SW,215,2.0,4.0,68,0.00,,,0.00,0,Wunderground v.1.15,2013-01-19 05:31:00,
2013-01-19 00:36:00,34.2,24.7,30.33,SW,232,2.0,4.0,68,0.00,,,0.00,0,Wunderground v.1.15,2013-01-19 05:36:00,
2013-01-19 00:41:00,34.2,24.7,30.33,SW,227,3.0,4.0,68,0.00,,,0.00,0,Wunderground v.1.15,2013-01-19 05:41:00,
2013-01-19 00:46:00,34.4,24.9,30.33,SW,230,3.0,4.0,68,0.00,,,0.00,0,Wunderground v.1.15,2013-01-19 05:46:00,
2013-01-19 00:51:00,34.3,24.8,30.33,SW,227,3.0,4.0,68,0.00,,,0.00,0,Wunderground v.1.15,2013-01-19 05:51:00,
2013-01-19 00:57:00,34.1,24.6,30.33,SW,229,3.0,4.0,68,0.00,,,0.00,0,Wunderground v.1.15,2013-01-19 05:57:00,
2013-01-19 01:01:00,33.9,24.8,30.33,SW,223,3.0,5.0,69,0.00,,,0.00,0,Wunderground v.1.15,2013-01-19 06:01:00,
2013-01-19 01:06:00,33.9,24.4,30.33,SW,227,2.0,5.0,68,0.00,,,0.00,0,Wunderground v.1.15,2013-01-19 06:06:00,
2013-01-19 01:11:00,33.8,24.7,30.33,SW,221,3.0,4.0,69,0.00,,,0.00,0,Wunderground v.1.15,2013-01-19 06:11:00,
2013-01-19 01:17:00,33.7,24.6,30.33,SW,228,3.0,4.0,69,0.00,,,0.00,0,Wunderground v.1.15,2013-01-19 06:17:00,
2013-01-19 01:22:00,33.7,24.6,30.33,SW,223,3.0,4.0,69,0.00,,,0.00,0,Wunderground v.1.15,2013-01-19 06:22:00,
2013-01-19 01:27:00,33.8,24.7,30.33,SW,220,2.0,4.0,69,0.00,,,0.00,0,Wunderground v.1.15,2013-01-19 06:27:00,
2013-01-19 01:32:00,33.8,24.7,30.33,SW,223,3.0,5.0,69,0.00,,,0.00,0,Wunderground v.1.15,2013-01-19 06:32:00,
2013-01-19 01:37:00,33.8,24.7,30.32,SSW,211,3.0,5.0,69,0.00,,,0.00,0,Wunderground v.1.15,2013-01-19 06:37:00,
2013-01-19 01:42:00,33.5,24.4,30.33,SW,229,2.0,4.0,69,0.00,,,0.00,0,Wunderground v.1.15,2013-01-19 06:42:00,
2013-01-19 01:47:00,33.5,24.8,30.33,SW,223,2.0,6.0,70,0.00,,,0.00,0,Wunderground v.1.15,2013-01-19 06:47:00,
2013-01-19 01:52:00,33.7,24.6,30.33,West,261,2.0,6.0,69,0.00,,,0.00,0,Wunderground v.1.15,2013-01-19 06:52:00,
2013-01-19 01:57:00,33.7,24.6,30.33,SW,229,3.0,6.0,69,0.00,,,0.00,0,Wunderground v.1.15,2013-01-19 06:57:00,
2013-01-19 02:02:00,33.9,24.8,30.33,SW,215,2.0,6.0,69,0.00,,,0.00,0,Wunderground v.1.15,2013-01-19 07:02:00,
2013-01-19 02:07:00,33.9,24.8,30.33,SW,223,3.0,6.0,69,0.00,,,0.00,0,Wunderground v.1.15,2013-01-19 07:07:00,
2013-01-19 02:12:00,34.3,24.8,30.33,WSW,242,3.0,6.0,68,0.00,,,0.00,0,Wunderground v.1.15,2013-01-19 07:12:00,
2013-01-19 02:17:00,34.4,24.9,30.32,SW,220,4.0,7.0,68,0.00,,,0.00,0,Wunderground v.1.15,2013-01-19 07:17:00,
2013-01-19 02:22:00,34.8,25.0,30.33,SW,232,4.0,8.0,67,0.00,,,0.00,0,Wunderground v.1.15,2013-01-19 07:22:00,
2013-01-19 02:27:00,35.5,25.3,30.33,SW,235,6.0,10.0,66,0.00,,,0.00,0,Wunderground v.1.15,2013-01-19 07:27:00,
2013-01-19 02:32:00,36.1,25.5,30.33,WSW,242,11.0,13.0,65,0.00,,,0.00,0,Wunderground v.1.15,2013-01-19 07:32:00,
2013-01-19 02:37:00,36.8,25.8,30.33,WSW,246,7.0,13.0,64,0.00,,,0.00,0,Wunderground v.1.15,2013-01-19 07:37:00,
2013-01-19 02:41:00,37.0,25.6,30.33,SW,217,11.0,11.0,63,0.00,,,0.00,0,Wunderground v.1.15,2013-01-19 07:41:00,
2013-01-19 02:46:00,37.2,25.8,30.33,WSW,251,8.0,11.0,63,0.00,,,0.00,0,Wunderground v.1.15,2013-01-19 07:46:00,
2013-01-19 02:51:00,37.1,25.7,30.33,WSW,242,8.0,10.0,63,0.00,,,0.00,0,Wunderground v.1.15,2013-01-19 07:51:00,
2013-01-19 02:56:00,37.1,25.7,30.32,West,273,5.0,11.0,63,0.00,,,0.00,0,Wunderground v.1.15,2013-01-19 07:56:00,
2013-01-19 03:01:00,37.0,25.6,30.32,SW,220,11.0,11.0,63,0.00,,,0.00,0,Wunderground v.1.15,2013-01-19 08:01:00,
2013-01-19 03:06:00,37.0,25.6,30.32,WSW,238,9.0,13.0,63,0.00,,,0.00,0,Wunderground v.1.15,2013-01-19 08:06:00,
2013-01-19 03:11:00,36.9,25.5,30.32,WSW,250,5.0,9.0,63,0.00,,,0.00,0,Wunderground v.1.15,2013-01-19 08:11:00,
2013-01-19 03:16:00,36.8,25.4,30.32,WSW,245,7.0,11.0,63,0.00,,,0.00,0,Wunderground v.1.15,2013-01-19 08:16:00,
2013-01-19 03:21:00,36.9,25.5,30.32,SW,234,6.0,9.0,63,0.00,,,0.00,0,Wunderground v.1.15,2013-01-19 08:21:00,
2013-01-19 03:26:00,36.9,25.1,30.32,SW,232,7.0,11.0,62,0.00,,,0.00,0,Wunderground v.1.15,2013-01-19 08:26:00,
2013-01-19 03:31:00,36.8,25.0,30.32,SW,216,3.0,12.0,62,0.00,,,0.00,0,Wunderground v.1.15,2013-01-19 08:31:00,
2013-01-19 03:36:00,36.7,25.3,30.32,West,263,6.0,12.0,63,0.00,,,0.00,0,Wunderground v.1.15,2013-01-19 08:36:00,
2013-01-19 03:41:00,36.6,25.2,30.32,West,267,4.0,7.0,63,0.00,,,0.00,0,Wunderground v.1.15,2013-01-19 08:41:00,
2013-01-19 03:46:00,36.6,24.8,30.32,SW,232,3.0,11.0,62,0.00,,,0.00,0,Wunderground v.1.15,2013-01-19 08:46:00,
2013-01-19 03:51:00,36.6,24.8,30.32,WSW,244,7.0,10.0,62,0.00,,,0.00,0,Wunderground v.1.15,2013-01-19 08:51:00,
2013-01-19 03:56:00,36.7,24.9,30.32,WSW,257,6.0,11.0,62,0.00,,,0.00,0,Wunderground v.1.15,2013-01-19 08:56:00,
2013-01-19 04:01:00,36.7,24.9,30.32,WSW,237,6.0,10.0,62,0.00,,,0.00,0,Wunderground v.1.15,2013-01-19 09:01:00,
2013-01-19 04:06:00,36.7,24.9,30.32,WSW,249,9.0,10.0,62,0.00,,,0.00,0,Wunderground v.1.15,2013-01-19 09:06:00,
2013-01-19 04:11:00,36.7,24.9,30.32,SW,224,7.0,9.0,62,0.00,,,0.00,0,Wunderground v.1.15,2013-01-19 09:11:00,
2013-01-19 04:16:00,36.7,24.9,30.32,WSW,250,6.0,12.0,62,0.00,,,0.00,0,Wunderground v.1.15,2013-01-19 09:16:00,
2013-01-19 04:21:00,36.7,24.9,30.32,WSW,244,8.0,13.0,62,0.00,,,0.00,0,Wunderground v.1.15,2013-01-19 09:21:00,
2013-01-19 04:26:00,36.7,25.3,30.32,WSW,243,10.0,13.0,63,0.00,,,0.00,0,Wunderground v.1.15,2013-01-19 09:26:00,
2013-01-19 04:31:00,36.7,25.3,30.31,WSW,247,9.0,12.0,63,0.00,,,0.00,0,Wunderground v.1.15,2013-01-19 09:31:00,
2013-01-19 04:36:00,36.8,25.4,30.31,WSW,245,5.0,12.0,63,0.00,,,0.00,0,Wunderground v.1.15,2013-01-19 09:36:00,
2013-01-19 04:41:00,36.7,25.3,30.31,WSW,248,10.0,13.0,63,0.00,,,0.00,0,Wunderground v.1.15,2013-01-19 09:41:00,
2013-01-19 04:46:00,36.7,25.3,30.31,WSW,257,12.0,13.0,63,0.00,,,0.00,0,Wunderground v.1.15,2013-01-19 09:46:00,
2013-01-19 04:51:00,36.7,25.7,30.30,WSW,243,8.0,10.0,64,0.00,,,0.00,0,Wunderground v.1.15,2013-01-19 09:51:00,
2013-01-19 04:56:00,36.6,25.6,30.30,SW,234,8.0,14.0,64,0.00,,,0.00,0,Wunderground v.1.15,2013-01-19 09:56:00,
2013-01-19 05:02:00,36.7,25.7,30.30,West,262,6.0,14.0,64,0.00,,,0.00,0,Wunderground v.1.15,2013-01-19 10:02:00,
2013-01-19 05:07:00,36.8,25.8,30.30,West,275,7.0,14.0,64,0.00,,,0.00,0,Wunderground v.1.15,2013-01-19 10:07:00,
2013-01-19 05:12:00,36.7,25.7,30.30,WSW,248,8.0,13.0,64,0.00,,,0.00,0,Wunderground v.1.15,2013-01-19 10:12:00,
2013-01-19 05:17:00,36.8,25.8,30.30,SW,223,7.0,13.0,64,0.00,,,0.00,0,Wunderground v.1.15,2013-01-19 10:17:00,
2013-01-19 05:22:00,36.9,25.9,30.30,SW,236,9.0,13.0,64,0.00,,,0.00,0,Wunderground v.1.15,2013-01-19 10:22:00,
2013-01-19 05:27:00,37.1,26.0,30.30,WSW,240,8.0,13.0,64,0.00,,,0.00,0,Wunderground v.1.15,2013-01-19 10:27:00,
2013-01-19 05:32:00,37.3,26.2,30.30,West,279,10.0,14.0,64,0.00,,,0.00,0,Wunderground v.1.15,2013-01-19 10:32:00,
2013-01-19 05:37:00,37.4,26.3,30.30,WSW,258,12.0,15.0,64,0.00,,,0.00,0,Wunderground v.1.15,2013-01-19 10:37:00,
2013-01-19 05:42:00,37.6,26.5,30.29,West,274,6.0,13.0,64,0.00,,,0.00,0,Wunderground v.1.15,2013-01-19 10:42:00,
2013-01-19 05:47:00,37.6,26.5,30.30,WSW,243,11.0,13.0,64,0.00,,,0.00,0,Wunderground v.1.15,2013-01-19 10:47:00,
2013-01-19 05:52:00,37.7,26.6,30.30,SW,235,8.0,11.0,64,0.00,,,0.00,0,Wunderground v.1.15,2013-01-19 10:52:00,
2013-01-19 05:57:00,37.8,26.7,30.30,WSW,241,13.0,13.0,64,0.00,,,0.00,0,Wunderground v.1.15,2013-01-19 10:57:00,
2013-01-19 06:02:00,38.0,26.9,30.30,WSW,258,11.0,15.0,64,0.00,,,0.00,0,Wunderground v.1.15,2013-01-19 11:02:00,
2013-01-19 06:07:00,38.1,27.0,30.29,WSW,240,9.0,15.0,64,0.00,,,0.00,0,Wunderground v.1.15,2013-01-19 11:07:00,
2013-01-19 06:12:00,38.2,27.1,30.29,WSW,248,11.0,14.0,64,0.00,,,0.00,0,Wunderground v.1.15,2013-01-19 11:12:00,
2013-01-19 07:47:00,37.9,27.5,30.29,WSW,257,10.0,12.0,66,0.00,,,0.00,0,Wunderground v.1.15,2013-01-19 12:47:00,
2013-01-19 07:48:00,37.9,27.5,30.29,SW,217,14.0,14.0,66,0.00,,,0.00,0,Wunderground v.1.15,2013-01-19 12:48:00,
2013-01-19 07:53:00,37.9,27.5,30.29,West,269,9.0,14.0,66,0.00,,,0.00,5,Wunderground v.1.15,2013-01-19 12:53:00,
2013-01-19 07:58:00,37.8,27.5,30.29,SW,219,7.0,9.0,66,0.00,,,0.00,7,Wunderground v.1.15,2013-01-19 12:58:00,
2013-01-19 08:03:00,37.8,27.5,30.30,WSW,240,8.0,13.0,66,0.00,,,0.00,11,Wunderground v.1.15,2013-01-19 13:03:00,
2013-01-19 08:08:00,37.7,27.4,30.29,SW,223,7.0,12.0,66,0.00,,,0.00,18,Wunderground v.1.15,2013-01-19 13:08:00,
2013-01-19 08:13:00,37.9,27.5,30.29,SW,232,8.0,13.0,66,0.00,,,0.00,19,Wunderground v.1.15,2013-01-19 13:13:00,
2013-01-19 08:18:00,38.0,27.3,30.30,WSW,240,5.0,10.0,65,0.00,,,0.00,21,Wunderground v.1.15,2013-01-19 13:18:00,
2013-01-19 08:23:00,38.0,27.6,30.30,WSW,256,7.0,12.0,66,0.00,,,0.00,37,Wunderground v.1.15,2013-01-19 13:23:00,
2013-01-19 08:28:00,38.1,27.7,30.30,WSW,248,5.0,8.0,66,0.00,,,0.00,54,Wunderground v.1.15,2013-01-19 13:28:00,
2013-01-19 08:33:00,38.2,27.8,30.30,WSW,252,5.0,9.0,66,0.00,,,0.00,65,Wunderground v.1.15,2013-01-19 13:33:00,
2013-01-19 08:38:00,38.5,27.7,30.30,WSW,252,5.0,8.0,65,0.00,,,0.00,79,Wunderground v.1.15,2013-01-19 13:38:00,
2013-01-19 08:43:00,38.8,28.0,30.30,West,263,9.0,13.0,65,0.00,,,0.00,95,Wunderground v.1.15,2013-01-19 13:43:00,
2013-01-19 08:48:00,39.1,28.3,30.30,WSW,246,8.0,8.0,65,0.00,,,0.00,113,Wunderground v.1.15,2013-01-19 13:48:00,
2013-01-19 08:53:00,39.5,28.3,30.30,West,259,8.0,13.0,64,0.00,,,0.00,130,Wunderground v.1.15,2013-01-19 13:53:00,
2013-01-19 08:58:00,39.8,28.6,30.29,SW,229,7.0,12.0,64,0.00,,,0.00,148,Wunderground v.1.15,2013-01-19 13:58:00,
2013-01-19 09:03:00,39.9,28.7,30.29,WSW,257,9.0,14.0,64,0.00,,,0.00,165,Wunderground v.1.15,2013-01-19 14:03:00,
2013-01-19 09:08:00,40.3,28.7,30.29,WSW,243,10.0,11.0,63,0.00,,,0.00,185,Wunderground v.1.15,2013-01-19 14:08:00,
2013-01-19 09:13:00,40.6,29.0,30.29,SSW,213,7.0,13.0,63,0.00,,,0.00,200,Wunderground v.1.15,2013-01-19 14:13:00,
2013-01-19 09:18:00,40.9,29.3,30.29,WSW,238,9.0,14.0,63,0.00,,,0.00,218,Wunderground v.1.15,2013-01-19 14:18:00,
2013-01-19 09:23:00,41.4,28.9,30.29,SW,214,8.0,18.0,61,0.00,,,0.00,237,Wunderground v.1.15,2013-01-19 14:23:00,
2013-01-19 09:28:00,41.8,29.7,30.29,WSW,254,8.0,9.0,62,0.00,,,0.00,253,Wunderground v.1.15,2013-01-19 14:28:00,
2013-01-19 09:33:00,42.2,29.7,30.29,West,267,10.0,14.0,61,0.00,,,0.00,269,Wunderground v.1.15,2013-01-19 14:33:00,
2013-01-19 09:38:00,42.5,29.6,30.29,WSW,257,11.0,18.0,60,0.00,,,0.00,285,Wunderground v.1.15,2013-01-19 14:38:00,
2013-01-19 09:43:00,42.9,29.5,30.29,WSW,257,10.0,18.0,59,0.00,,,0.00,301,Wunderground v.1.15,2013-01-19 14:43:00,
2013-01-19 09:46:00,43.2,29.8,30.29,WNW,284,7.0,18.0,59,0.00,,,0.00,308,Wunderground v.1.15,2013-01-19 14:46:00,
2013-01-19 09:51:00,43.6,29.8,30.29,WSW,252,10.0,15.0,58,0.00,,,0.00,322,Wunderground v.1.15,2013-01-19 14:51:00,
2013-01-19 09:56:00,44.0,29.7,30.29,WSW,245,15.0,19.0,57,0.00,,,0.00,334,Wunderground v.1.15,2013-01-19 14:56:00,
2013-01-19 10:01:00,44.3,30.0,30.29,WSW,254,13.0,19.0,57,0.00,,,0.00,348,Wunderground v.1.15,2013-01-19 15:01:00,
2013-01-19 10:06:00,44.6,29.9,30.29,WSW,239,16.0,21.0,56,0.00,,,0.00,364,Wunderground v.1.15,2013-01-19 15:06:00,
2013-01-19 10:11:00,44.9,29.7,30.29,WSW,249,19.0,21.0,55,0.00,,,0.00,376,Wunderground v.1.15,2013-01-19 15:11:00,
2013-01-19 10:16:00,45.1,29.4,30.29,WSW,256,20.0,21.0,54,0.00,,,0.00,388,Wunderground v.1.15,2013-01-19 15:16:00,
2013-01-19 10:21:00,45.4,29.7,30.28,SW,231,13.0,20.0,54,0.00,,,0.00,401,Wunderground v.1.15,2013-01-19 15:21:00,
2013-01-19 10:26:00,45.5,29.8,30.29,WSW,254,21.0,21.0,54,0.00,,,0.00,411,Wunderground v.1.15,2013-01-19 15:26:00,
2013-01-19 10:31:00,45.7,29.5,30.28,WSW,250,13.0,21.0,53,0.00,,,0.00,424,Wunderground v.1.15,2013-01-19 15:31:00,
2013-01-19 10:36:00,45.9,29.7,30.28,WSW,252,13.0,21.0,53,0.00,,,0.00,436,Wunderground v.1.15,2013-01-19 15:36:00,
2013-01-19 10:42:00,46.3,30.1,30.29,WSW,246,16.0,19.0,53,0.00,,,0.00,446,Wunderground v.1.15,2013-01-19 15:42:00,
2013-01-19 10:47:00,46.6,29.9,30.28,WSW,245,19.0,20.0,52,0.00,,,0.00,457,Wunderground v.1.15,2013-01-19 15:47:00,
2013-01-19 10:51:00,47.0,30.3,30.28,WSW,248,12.0,17.0,52,0.00,,,0.00,469,Wunderground v.1.15,2013-01-19 15:51:00,
2013-01-19 10:56:00,47.2,29.5,30.28,West,279,11.0,19.0,50,0.00,,,0.00,476,Wunderground v.1.15,2013-01-19 15:56:00,
2013-01-19 11:01:00,47.4,29.7,30.28,West,268,18.0,23.0,50,0.00,,,0.00,485,Wunderground v.1.15,2013-01-19 16:01:00,
2013-01-19 11:06:00,47.4,28.7,30.28,West,281,10.0,23.0,48,0.00,,,0.00,496,Wunderground v.1.15,2013-01-19 16:06:00,
2013-01-19 11:11:00,47.6,28.9,30.27,WSW,244,19.0,27.0,48,0.00,,,0.00,504,Wunderground v.1.15,2013-01-19 16:11:00,
2013-01-19 11:16:00,47.8,29.0,30.27,West,281,11.0,27.0,48,0.00,,,0.00,513,Wunderground v.1.15,2013-01-19 16:16:00,
2013-01-19 11:21:00,47.9,29.1,30.26,West,272,17.0,22.0,48,0.00,,,0.00,522,Wunderground v.1.15,2013-01-19 16:21:00,
2013-01-19 11:26:00,48.1,29.3,30.26,WSW,258,9.0,22.0,48,0.00,,,0.00,531,Wunderground v.1.15,2013-01-19 16:26:00,
2013-01-19 11:31:00,48.5,29.7,30.25,WSW,238,15.0,19.0,48,0.00,,,0.00,534,Wunderground v.1.15,2013-01-19 16:31:00,
2013-01-19 11:36:00,48.8,28.9,30.25,WSW,248,19.0,23.0,46,0.00,,,0.00,543,Wunderground v.1.15,2013-01-19 16:36:00,
2013-01-19 11:41:00,48.9,29.0,30.24,WNW,288,14.0,23.0,46,0.00,,,0.00,548,Wunderground v.1.15,2013-01-19 16:41:00,
2013-01-19 11:46:00,49.4,29.5,30.24,WSW,254,19.0,23.0,46,0.00,,,0.00,554,Wunderground v.1.15,2013-01-19 16:46:00,
2013-01-19 11:51:00,49.6,29.6,30.24,WSW,257,15.0,23.0,46,0.00,,,0.00,559,Wunderground v.1.15,2013-01-19 16:51:00,
2013-01-19 11:56:00,49.7,29.2,30.23,WSW,254,19.0,24.0,45,0.00,,,0.00,566,Wunderground v.1.15,2013-01-19 16:56:00,
2013-01-19 12:01:00,49.9,29.9,30.23,West,267,13.0,19.0,46,0.00,,,0.00,570,Wunderground v.1.15,2013-01-19 17:01:00,
2013-01-19 12:06:00,50.4,29.3,30.22,West,262,12.0,25.0,44,0.00,,,0.00,573,Wunderground v.1.15,2013-01-19 17:06:00,
2013-01-19 12:11:00,50.6,28.9,30.22,WSW,257,16.0,22.0,43,0.00,,,0.00,577,Wunderground v.1.15,2013-01-19 17:11:00,
2013-01-19 12:16:00,50.7,29.0,30.21,SW,227,16.0,22.0,43,0.00,,,0.00,578,Wunderground v.1.15,2013-01-19 17:16:00,
2013-01-19 12:21:00,51.0,28.7,30.21,WSW,245,19.0,25.0,42,0.00,,,0.00,582,Wunderground v.1.15,2013-01-19 17:21:00,
2013-01-19 12:26:00,51.1,28.2,30.20,SW,230,15.0,25.0,41,0.00,,,0.00,585,Wunderground v.1.15,2013-01-19 17:26:00,
2013-01-19 12:32:00,51.4,28.5,30.20,WSW,246,19.0,21.0,41,0.00,,,0.00,585,Wunderground v.1.15,2013-01-19 17:32:00,
2013-01-19 12:37:00,52.1,29.7,30.19,West,260,5.0,21.0,42,0.00,,,0.00,587,Wunderground v.1.15,2013-01-19 17:37:00,
2013-01-19 12:42:00,52.2,28.6,30.18,WSW,248,18.0,21.0,40,0.00,,,0.00,585,Wunderground v.1.15,2013-01-19 17:42:00,
2013-01-19 12:47:00,52.4,28.8,30.18,West,262,15.0,21.0,40,0.00,,,0.00,589,Wunderground v.1.15,2013-01-19 17:47:00,
2013-01-19 12:52:00,52.4,28.1,30.18,West,262,11.0,22.0,39,0.00,,,0.00,587,Wunderground v.1.15,2013-01-19 17:52:00,
2013-01-19 12:57:00,52.6,28.9,30.18,WSW,250,17.0,22.0,40,0.00,,,0.00,587,Wunderground v.1.15,2013-01-19 17:57:00,
2013-01-19 13:02:00,52.3,28.7,30.18,West,262,24.0,25.0,40,0.00,,,0.00,585,Wunderground v.1.15,2013-01-19 18:02:00,
2013-01-19 13:07:00,52.4,28.8,30.17,WSW,246,10.0,25.0,40,0.00,,,0.00,585,Wunderground v.1.15,2013-01-19 18:07:00,
2013-01-19 13:12:00,52.7,29.6,30.17,WSW,244,9.0,21.0,41,0.00,,,0.00,584,Wunderground v.1.15,2013-01-19 18:12:00,
2013-01-19 13:17:00,52.9,28.0,30.16,WSW,245,14.0,22.0,38,0.00,,,0.00,580,Wunderground v.1.15,2013-01-19 18:17:00,
2013-01-19 13:22:00,52.7,27.8,30.16,WSW,250,13.0,23.0,38,0.00,,,0.00,578,Wunderground v.1.15,2013-01-19 18:22:00,
2013-01-19 13:27:00,53.0,28.0,30.16,West,266,14.0,23.0,38,0.00,,,0.00,575,Wunderground v.1.15,2013-01-19 18:27:00,
2013-01-19 13:32:00,53.2,28.2,30.15,West,261,16.0,23.0,38,0.00,,,0.00,573,Wunderground v.1.15,2013-01-19 18:32:00,
2013-01-19 13:37:00,53.0,28.0,30.15,WSW,244,11.0,26.0,38,0.00,,,0.00,566,Wunderground v.1.15,2013-01-19 18:37:00,
2013-01-19 13:42:00,53.2,28.9,30.15,WSW,258,10.0,24.0,39,0.00,,,0.00,563,Wunderground v.1.15,2013-01-19 18:42:00,
2013-01-19 13:47:00,53.5,27.8,30.15,West,270,14.0,24.0,37,0.00,,,0.00,557,Wunderground v.1.15,2013-01-19 18:47:00,
2013-01-19 13:52:00,53.6,27.3,30.15,WSW,253,11.0,22.0,36,0.00,,,0.00,554,Wunderground v.1.15,2013-01-19 18:52:00,
2013-01-19 13:57:00,54.0,27.6,30.14,WSW,240,14.0,22.0,36,0.00,,,0.00,548,Wunderground v.1.15,2013-01-19 18:57:00,
2013-01-19 14:02:00,54.0,27.6,30.14,WSW,247,18.0,28.0,36,0.00,,,0.00,540,Wunderground v.1.15,2013-01-19 19:02:00,
2013-01-19 14:07:00,54.0,27.6,30.13,SW,236,13.0,28.0,36,0.00,,,0.00,534,Wunderground v.1.15,2013-01-19 19:07:00,
2013-01-19 14:12:00,54.0,28.3,30.13,SW,228,11.0,21.0,37,0.00,,,0.00,526,Wunderground v.1.15,2013-01-19 19:12:00,
2013-01-19 14:17:00,54.1,27.0,30.13,SW,233,13.0,21.0,35,0.00,,,0.00,520,Wunderground v.1.15,2013-01-19 19:17:00,
2013-01-19 14:22:00,54.3,27.2,30.12,West,281,12.0,21.0,35,0.00,,,0.00,513,Wunderground v.1.15,2013-01-19 19:22:00,
2013-01-19 14:27:00,54.2,27.1,30.12,West,260,15.0,22.0,35,0.00,,,0.00,504,Wunderground v.1.15,2013-01-19 19:27:00,
2013-01-19 14:32:00,54.3,27.2,30.12,West,269,12.0,18.0,35,0.00,,,0.00,496,Wunderground v.1.15,2013-01-19 19:32:00,
2013-01-19 14:37:00,54.5,27.4,30.12,West,259,12.0,21.0,35,0.00,,,0.00,485,Wunderground v.1.15,2013-01-19 19:37:00,
2013-01-19 14:42:00,54.5,28.1,30.12,WSW,254,16.0,21.0,36,0.00,,,0.00,476,Wunderground v.1.15,2013-01-19 19:42:00,
2013-01-19 14:47:00,54.5,28.1,30.11,WSW,248,19.0,21.0,36,0.00,,,0.00,466,Wunderground v.1.15,2013-01-19 19:47:00,
2013-01-19 14:52:00,54.6,27.5,30.11,WSW,246,15.0,20.0,35,0.00,,,0.00,455,Wunderground v.1.15,2013-01-19 19:52:00,
2013-01-19 14:58:00,55.0,27.8,30.10,WSW,255,14.0,14.0,35,0.00,,,0.00,445,Wunderground v.1.15,2013-01-19 19:58:00,
2013-01-19 15:03:00,54.9,27.0,30.10,WSW,247,12.0,23.0,34,0.00,,,0.00,434,Wunderground v.1.15,2013-01-19 20:03:00,
2013-01-19 15:08:00,54.7,27.6,30.10,West,262,11.0,14.0,35,0.00,,,0.00,424,Wunderground v.1.15,2013-01-19 20:08:00,
2013-01-19 15:13:00,55.0,28.5,30.10,WSW,246,8.0,17.0,36,0.00,,,0.00,413,Wunderground v.1.15,2013-01-19 20:13:00,
2013-01-19 15:18:00,54.8,27.6,30.10,SW,232,14.0,15.0,35,0.00,,,0.00,401,Wunderground v.1.15,2013-01-19 20:18:00,
2013-01-19 15:23:00,54.5,27.4,30.09,WSW,238,15.0,22.0,35,0.00,,,0.00,388,Wunderground v.1.15,2013-01-19 20:23:00,
2013-01-19 15:28:00,54.4,27.3,30.09,West,266,12.0,24.0,35,0.00,,,0.00,378,Wunderground v.1.15,2013-01-19 20:28:00,
2013-01-19 15:33:00,54.4,27.3,30.09,WSW,239,16.0,24.0,35,0.00,,,0.00,364,Wunderground v.1.15,2013-01-19 20:33:00,
2013-01-19 15:38:00,54.3,27.2,30.09,WSW,256,11.0,16.0,35,0.00,,,0.00,350,Wunderground v.1.15,2013-01-19 20:38:00,
2013-01-19 15:43:00,54.4,28.0,30.09,WSW,246,8.0,24.0,36,0.00,,,0.00,336,Wunderground v.1.15,2013-01-19 20:43:00,
2013-01-19 15:48:00,54.4,27.3,30.09,SW,234,13.0,19.0,35,0.00,,,0.00,322,Wunderground v.1.15,2013-01-19 20:48:00,
2013-01-19 15:53:00,54.2,27.1,30.09,West,261,17.0,23.0,35,0.00,,,0.00,309,Wunderground v.1.15,2013-01-19 20:53:00,
2013-01-19 15:58:00,54.2,27.1,30.09,SSW,206,10.0,16.0,35,0.00,,,0.00,295,Wunderground v.1.15,2013-01-19 20:58:00,
2013-01-19 16:03:00,54.1,27.0,30.08,WSW,237,17.0,22.0,35,0.00,,,0.00,279,Wunderground v.1.15,2013-01-19 21:03:00,
2013-01-19 16:08:00,54.0,26.9,30.08,West,259,21.0,24.0,35,0.00,,,0.00,264,Wunderground v.1.15,2013-01-19 21:08:00,
2013-01-19 16:13:00,54.0,26.2,30.08,West,262,13.0,24.0,34,0.00,,,0.00,246,Wunderground v.1.15,2013-01-19 21:13:00,
2013-01-19 16:18:00,54.1,27.0,30.08,WSW,253,14.0,16.0,35,0.00,,,0.00,230,Wunderground v.1.15,2013-01-19 21:18:00,
2013-01-19 16:23:00,54.0,26.9,30.08,West,261,9.0,19.0,35,0.00,,,0.00,213,Wunderground v.1.15,2013-01-19 21:23:00,
2013-01-19 16:28:00,53.9,26.8,30.07,West,261,15.0,20.0,35,0.00,,,0.00,193,Wunderground v.1.15,2013-01-19 21:28:00,
2013-01-19 16:33:00,53.9,26.8,30.07,West,271,8.0,20.0,35,0.00,,,0.00,179,Wunderground v.1.15,2013-01-19 21:33:00,
2013-01-19 16:38:00,53.8,26.8,30.07,WSW,250,12.0,14.0,35,0.00,,,0.00,160,Wunderground v.1.15,2013-01-19 21:38:00,
2013-01-19 16:43:00,53.7,26.7,30.07,SW,225,15.0,21.0,35,0.00,,,0.00,142,Wunderground v.1.15,2013-01-19 21:43:00,
2013-01-19 16:48:00,53.5,27.2,30.07,West,259,13.0,15.0,36,0.00,,,0.00,125,Wunderground v.1.15,2013-01-19 21:48:00,
2013-01-19 16:53:00,53.3,27.0,30.07,WSW,250,9.0,18.0,36,0.00,,,0.00,107,Wunderground v.1.15,2013-01-19 21:53:00,
2013-01-19 16:58:00,53.1,27.5,30.07,WSW,250,7.0,11.0,37,0.00,,,0.00,91,Wunderground v.1.15,2013-01-19 21:58:00,
2013-01-19 17:03:00,52.9,27.3,30.07,SW,230,11.0,17.0,37,0.00,,,0.00,76,Wunderground v.1.15,2013-01-19 22:03:00,
2013-01-19 17:08:00,52.8,27.2,30.07,WSW,258,9.0,12.0,37,0.00,,,0.00,62,Wunderground v.1.15,2013-01-19 22:08:00,
2013-01-19 17:13:00,52.6,27.7,30.07,SW,236,13.0,16.0,38,0.00,,,0.00,49,Wunderground v.1.15,2013-01-19 22:13:00,
2013-01-19 17:18:00,52.4,27.5,30.07,WSW,238,10.0,15.0,38,0.00,,,0.00,37,Wunderground v.1.15,2013-01-19 22:18:00,
2013-01-19 17:23:00,52.2,28.0,30.07,SW,235,8.0,19.0,39,0.00,,,0.00,25,Wunderground v.1.15,2013-01-19 22:23:00,
2013-01-19 17:28:00,52.0,27.8,30.07,WSW,251,8.0,13.0,39,0.00,,,0.00,14,Wunderground v.1.15,2013-01-19 22:28:00,
2013-01-19 17:33:00,51.7,28.1,30.07,WSW,256,7.0,17.0,40,0.00,,,0.00,12,Wunderground v.1.15,2013-01-19 22:33:00,
2013-01-19 17:38:00,51.5,27.3,30.07,SW,235,9.0,19.0,39,0.00,,,0.00,9,Wunderground v.1.15,2013-01-19 22:38:00,
2013-01-19 17:43:00,51.4,27.9,30.06,SW,232,11.0,20.0,40,0.00,,,0.00,7,Wunderground v.1.15,2013-01-19 22:43:00,
2013-01-19 17:48:00,51.2,28.3,30.06,West,266,10.0,16.0,41,0.00,,,0.00,5,Wunderground v.1.15,2013-01-19 22:48:00,
2013-01-19 17:53:00,51.0,28.1,30.06,SW,230,11.0,20.0,41,0.00,,,0.00,0,Wunderground v.1.15,2013-01-19 22:53:00,
2013-01-19 17:58:00,50.7,28.4,30.06,WSW,239,13.0,18.0,42,0.00,,,0.00,0,Wunderground v.1.15,2013-01-19 22:58:00,
2013-01-19 18:03:00,50.6,28.3,30.06,WNW,290,8.0,18.0,42,0.00,,,0.00,0,Wunderground v.1.15,2013-01-19 23:03:00,
2013-01-19 18:08:00,50.5,28.2,30.06,WSW,254,13.0,13.0,42,0.00,,,0.00,0,Wunderground v.1.15,2013-01-19 23:08:00,
2013-01-19 18:13:00,50.4,28.7,30.06,WSW,250,8.0,15.0,43,0.00,,,0.00,0,Wunderground v.1.15,2013-01-19 23:13:00,
2013-01-19 18:18:00,50.1,28.4,30.06,WSW,244,9.0,13.0,43,0.00,,,0.00,0,Wunderground v.1.15,2013-01-19 23:18:00,
2013-01-19 18:23:00,49.9,28.8,30.06,SW,216,7.0,14.0,44,0.00,,,0.00,0,Wunderground v.1.15,2013-01-19 23:23:00,
2013-01-19 18:28:00,49.8,28.7,30.06,WSW,257,8.0,11.0,44,0.00,,,0.00,0,Wunderground v.1.15,2013-01-19 23:28:00,
2013-01-19 18:33:00,49.7,28.6,30.06,WSW,244,13.0,16.0,44,0.00,,,0.00,0,Wunderground v.1.15,2013-01-19 23:33:00,
2013-01-19 18:38:00,49.7,28.6,30.06,WSW,248,13.0,15.0,44,0.00,,,0.00,0,Wunderground v.1.15,2013-01-19 23:38:00,
2013-01-19 18:43:00,49.7,29.2,30.06,WSW,242,10.0,17.0,45,0.00,,,0.00,0,Wunderground v.1.15,2013-01-19 23:43:00,
2013-01-19 18:49:00,49.6,29.1,30.05,SW,229,7.0,14.0,45,0.00,,,0.00,0,Wunderground v.1.15,2013-01-19 23:49:00,
2013-01-19 18:54:00,49.4,28.9,30.05,WSW,242,8.0,16.0,45,0.00,,,0.00,0,Wunderground v.1.15,2013-01-19 23:54:00,
2013-01-19 18:59:00,49.3,29.4,30.05,SW,234,8.0,14.0,46,0.00,,,0.00,0,Wunderground v.1.15,2013-01-19 23:59:00,
2013-01-19 19:04:00,49.0,29.1,30.05,SW,232,8.0,14.0,46,0.00,,,0.00,0,Wunderground v.1.15,2013-01-20 00:04:00,
2013-01-19 19:09:00,48.8,28.9,30.05,SW,227,10.0,13.0,46,0.00,,,0.00,0,Wunderground v.1.15,2013-01-20 00:09:00,
2013-01-19 19:14:00,48.7,29.4,30.05,WSW,237,8.0,15.0,47,0.00,,,0.00,0,Wunderground v.1.15,2013-01-20 00:14:00,
2013-01-19 19:19:00,48.4,29.6,30.04,WSW,242,10.0,12.0,48,0.00,,,0.00,0,Wunderground v.1.15,2013-01-20 00:19:00,
2013-01-19 19:24:00,48.1,29.3,30.04,WSW,244,9.0,15.0,48,0.00,,,0.00,0,Wunderground v.1.15,2013-01-20 00:24:00,
2013-01-19 19:29:00,48.2,29.4,30.04,West,269,11.0,19.0,48,0.00,,,0.00,0,Wunderground v.1.15,2013-01-20 00:29:00,
2013-01-19 19:34:00,48.3,29.5,30.04,SW,227,9.0,19.0,48,0.00,,,0.00,0,Wunderground v.1.15,2013-01-20 00:34:00,
2013-01-19 19:39:00,48.3,29.5,30.04,WSW,237,14.0,16.0,48,0.00,,,0.00,0,Wunderground v.1.15,2013-01-20 00:39:00,
2013-01-19 19:44:00,48.4,29.6,30.05,SW,227,8.0,20.0,48,0.00,,,0.00,0,Wunderground v.1.15,2013-01-20 00:44:00,
2013-01-19 19:49:00,48.3,30.0,30.05,SW,227,8.0,12.0,49,0.00,,,0.00,0,Wunderground v.1.15,2013-01-20 00:49:00,
2013-01-19 19:54:00,48.3,30.0,30.05,WSW,241,11.0,17.0,49,0.00,,,0.00,0,Wunderground v.1.15,2013-01-20 00:54:00,
2013-01-19 19:59:00,48.3,30.0,30.05,WSW,251,8.0,11.0,49,0.00,,,0.00,0,Wunderground v.1.15,2013-01-20 00:59:00,
2013-01-19 20:04:00,48.2,29.9,30.05,SW,236,10.0,14.0,49,0.00,,,0.00,0,Wunderground v.1.15,2013-01-20 01:04:00,
2013-01-19 20:09:00,48.1,30.3,30.05,SW,230,10.0,12.0,50,0.00,,,0.00,0,Wunderground v.1.15,2013-01-20 01:09:00,
2013-01-19 20:14:00,48.1,30.3,30.05,WSW,256,12.0,16.0,50,0.00,,,0.00,0,Wunderground v.1.15,2013-01-20 01:14:00,
2013-01-19 20:19:00,48.2,30.4,30.05,SW,231,14.0,16.0,50,0.00,,,0.00,0,Wunderground v.1.15,2013-01-20 01:19:00,
2013-01-19 20:24:00,48.2,30.4,30.05,South,175,15.0,20.0,50,0.00,,,0.00,0,Wunderground v.1.15,2013-01-20 01:24:00,
2013-01-19 20:29:00,48.3,30.5,30.04,WSW,238,8.0,15.0,50,0.00,,,0.00,0,Wunderground v.1.15,2013-01-20 01:29:00,
2013-01-19 20:34:00,48.2,30.4,30.05,WSW,254,12.0,21.0,50,0.00,,,0.00,0,Wunderground v.1.15,2013-01-20 01:34:00,
2013-01-19 20:39:00,48.2,30.9,30.05,WSW,250,10.0,16.0,51,0.00,,,0.00,0,Wunderground v.1.15,2013-01-20 01:39:00,
2013-01-19 20:44:00,48.2,30.4,30.04,SW,232,11.0,21.0,50,0.00,,,0.00,0,Wunderground v.1.15,2013-01-20 01:44:00,
2013-01-19 20:49:00,48.2,30.9,30.05,WSW,251,13.0,17.0,51,0.00,,,0.00,0,Wunderground v.1.15,2013-01-20 01:49:00,
2013-01-19 20:54:00,48.2,30.9,30.04,WSW,255,16.0,21.0,51,0.00,,,0.00,0,Wunderground v.1.15,2013-01-20 01:54:00,
2013-01-19 20:59:00,48.2,30.9,30.05,West,265,17.0,21.0,51,0.00,,,0.00,0,Wunderground v.1.15,2013-01-20 01:59:00,
2013-01-19 21:04:00,48.2,30.9,30.05,WSW,255,10.0,22.0,51,0.00,,,0.00,0,Wunderground v.1.15,2013-01-20 02:04:00,
2013-01-19 21:09:00,48.2,30.9,30.05,West,271,14.0,16.0,51,0.00,,,0.00,0,Wunderground v.1.15,2013-01-20 02:09:00,
2013-01-19 21:14:00,48.1,30.8,30.05,West,259,12.0,18.0,51,0.00,,,0.00,0,Wunderground v.1.15,2013-01-20 02:14:00,
2013-01-19 21:19:00,47.9,30.6,30.05,West,259,9.0,14.0,51,0.00,,,0.00,0,Wunderground v.1.15,2013-01-20 02:19:00,
2013-01-19 21:24:00,47.9,30.6,30.05,West,271,12.0,24.0,51,0.00,,,0.00,0,Wunderground v.1.15,2013-01-20 02:24:00,
2013-01-19 21:29:00,47.8,31.0,30.06,West,272,10.0,14.0,52,0.00,,,0.00,0,Wunderground v.1.15,2013-01-20 02:29:00,
2013-01-19 21:34:00,47.8,31.0,30.05,West,271,11.0,18.0,52,0.00,,,0.00,0,Wunderground v.1.15,2013-01-20 02:34:00,
2013-01-19 21:39:00,47.7,30.9,30.06,West,264,7.0,12.0,52,0.00,,,0.00,0,Wunderground v.1.15,2013-01-20 02:39:00,
2013-01-19 21:44:00,47.5,31.2,30.06,WSW,252,8.0,19.0,53,0.00,,,0.00,0,Wunderground v.1.15,2013-01-20 02:44:00,
2013-01-19 21:49:00,47.4,31.1,30.06,WSW,252,12.0,17.0,53,0.00,,,0.00,0,Wunderground v.1.15,2013-01-20 02:49:00,
2013-01-19 21:54:00,47.2,30.9,30.06,West,273,7.0,17.0,53,0.00,,,0.00,0,Wunderground v.1.15,2013-01-20 02:54:00,
2013-01-19 21:59:00,47.0,31.2,30.06,West,260,12.0,15.0,54,0.00,,,0.00,0,Wunderground v.1.15,2013-01-20 02:59:00,
2013-01-19 22:04:00,46.9,31.1,30.06,WNW,285,10.0,15.0,54,0.00,,,0.00,0,Wunderground v.1.15,2013-01-20 03:04:00,
2013-01-19 22:09:00,46.8,31.5,30.06,WSW,256,14.0,14.0,55,0.00,,,0.00,0,Wunderground v.1.15,2013-01-20 03:09:00,
2013-01-19 22:14:00,46.8,31.5,30.05,WSW,249,13.0,19.0,55,0.00,,,0.00,0,Wunderground v.1.15,2013-01-20 03:14:00,
2013-01-19 22:19:00,46.8,31.5,30.05,WSW,255,13.0,16.0,55,0.00,,,0.00,0,Wunderground v.1.15,2013-01-20 03:19:00,
2013-01-19 22:24:00,46.7,31.4,30.05,WSW,258,13.0,16.0,55,0.00,,,0.00,0,Wunderground v.1.15,2013-01-20 03:24:00,
2013-01-19 22:29:00,46.7,31.4,30.05,West,263,8.0,13.0,55,0.00,,,0.00,0,Wunderground v.1.15,2013-01-20 03:29:00,
2013-01-19 22:34:00,46.6,31.3,30.05,WSW,249,10.0,14.0,55,0.00,,,0.00,0,Wunderground v.1.15,2013-01-20 03:34:00,
2013-01-19 22:39:00,46.5,31.2,30.05,West,259,12.0,17.0,55,0.00,,,0.00,0,Wunderground v.1.15,2013-01-20 03:39:00,
2013-01-19 22:44:00,46.5,31.6,30.05,WSW,257,17.0,17.0,56,0.00,,,0.00,0,Wunderground v.1.15,2013-01-20 03:44:00,
2013-01-19 22:49:00,46.5,31.6,30.05,WSW,250,7.0,13.0,56,0.00,,,0.00,0,Wunderground v.1.15,2013-01-20 03:49:00,
2013-01-19 22:54:00,46.4,31.5,30.05,West,263,8.0,20.0,56,0.00,,,0.00,0,Wunderground v.1.15,2013-01-20 03:54:00,
2013-01-19 22:59:00,46.5,31.6,30.05,WSW,256,9.0,17.0,56,0.00,,,0.00,0,Wunderground v.1.15,2013-01-20 03:59:00,
2013-01-19 23:04:00,46.4,31.5,30.05,WSW,241,12.0,17.0,56,0.00,,,0.00,0,Wunderground v.1.15,2013-01-20 04:04:00,
2013-01-19 23:10:00,46.3,31.4,30.05,WSW,257,11.0,17.0,56,0.00,,,0.00,0,Wunderground v.1.15,2013-01-20 04:10:00,
2013-01-19 23:15:00,46.3,31.4,30.05,West,260,12.0,18.0,56,0.00,,,0.00,0,Wunderground v.1.15,2013-01-20 04:15:00,
2013-01-19 23:20:00,46.2,31.4,30.05,West,259,11.0,12.0,56,0.00,,,0.00,0,Wunderground v.1.15,2013-01-20 04:20:00,
2013-01-19 23:25:00,46.1,31.3,30.05,WNW,286,7.0,18.0,56,0.00,,,0.00,0,Wunderground v.1.15,2013-01-20 04:25:00,
2013-01-19 23:30:00,46.2,31.4,30.05,WSW,250,8.0,14.0,56,0.00,,,0.00,0,Wunderground v.1.15,2013-01-20 04:30:00,
2013-01-19 23:35:00,46.1,31.7,30.05,West,261,10.0,16.0,57,0.00,,,0.00,0,Wunderground v.1.15,2013-01-20 04:35:00,
2013-01-19 23:40:00,46.0,31.6,30.05,West,272,11.0,19.0,57,0.00,,,0.00,0,Wunderground v.1.15,2013-01-20 04:40:00,
2013-01-19 23:45:00,46.0,31.6,30.05,West,276,10.0,19.0,57,0.00,,,0.00,0,Wunderground v.1.15,2013-01-20 04:45:00,
2013-01-19 23:50:00,46.0,31.6,30.04,WSW,254,16.0,21.0,57,0.00,,,0.00,0,Wunderground v.1.15,2013-01-20 04:50:00,
2013-01-19 23:55:00,46.0,31.6,30.04,WSW,250,14.0,21.0,57,0.00,,,0.00,0,Wunderground v.1.15,2013-01-20 04:55:00,